FW2439 Weather Reports


time (UTC)temp
C
wind
direction
speed
KPH
gust
KPH
rain 1hr
cm
rain 24hr
cm
rain mn
cm
humidity
%
barometer
mb
20260905130034 23 252 0.0 0.0 0.00 0.00 0.00 100 1014.3
20260905124535 22 252 0.0 0.0 0.00 0.00 0.00 100 1014.3
20260905123038 22 252 0.0 0.0 0.00 0.00 0.00 99 1014.3
20260905121537 22 252 0.0 0.0 0.00 0.00 0.00 99 1014.2
20260905120036 22 252 0.0 0.0 0.00 0.00 0.00 99 1014.1
20260905114529 22 252 0.0 0.0 0.00 0.00 0.00 99 1014.0
20260905113028 22 252 0.0 0.0 0.00 0.00 0.00 99 1013.8
20260905111529 22 252 0.0 0.0 0.00 0.00 0.00 99 1013.6
20260905110026 22 252 0.0 0.0 0.00 0.00 0.00 98 1013.6
20260905104525 22 252 0.0 0.0 0.00 0.00 0.00 99 1013.6
20260905103026 22 252 0.0 0.0 0.00 0.00 0.00 99 1013.6
20260905101528 22 252 0.0 0.0 0.00 0.00 0.00 99 1013.5
20260905100024 22 252 0.0 0.0 0.00 0.00 0.00 98 1013.5
20260905094542 22 252 0.0 0.0 0.00 0.00 0.00 98 1013.4
20260905093023 22 252 0.0 0.0 0.00 0.00 0.00 98 1013.5
20260905091522 22 252 0.0 0.0 0.00 0.00 0.00 98 1013.5
20260905090021 22 252 0.0 0.0 0.00 0.00 0.00 98 1013.4
20260905084520 22 252 0.0 0.0 0.00 0.00 0.00 98 1013.3
20260905083020 22 252 0.0 0.0 0.00 0.00 0.00 97 1013.3
20260905081518 22 252 0.0 0.0 0.00 0.00 0.00 98 1013.3
20260905080017 22 252 0.0 0.0 0.00 0.00 0.00 98 1013.3
20260905074516 23 252 0.0 0.0 0.00 0.00 0.00 98 1013.2
20260905073016 23 252 0.0 0.0 0.00 0.00 0.00 97 1013.3
20260905071515 23 252 0.0 0.0 0.00 0.00 0.00 97 1013.3
20260905070012 23 252 0.0 0.0 0.00 0.00 0.00 97 1013.3
20260905064511 23 252 0.0 1.6 0.00 0.00 0.00 97 1013.2
20260905063009 23 252 0.0 0.0 0.00 0.00 0.00 96 1013.2
20260905061508 23 252 0.0 0.0 0.00 0.00 0.00 96 1013.3
20260905060008 23 252 0.0 0.0 0.00 0.00 0.00 96 1013.5
20260905054502 23 252 0.0 0.0 0.00 0.00 0.00 95 1013.8
20260905053002 23 252 0.0 0.0 0.00 0.00 0.00 95 1013.8
20260905051610 24 252 0.0 0.0 0.00 0.00 0.00 94 1013.7
20260905044555 24 252 0.0 0.0 0.00 0.00 0.00 94 1013.7
20260905043055 24 252 0.0 0.0 0.00 0.00 0.00 93 1013.8
20260905041600 25 252 0.0 0.0 0.00 0.00 0.00 93 1014.0
20260905040106 25 252 0.0 0.0 0.00 0.00 0.00 93 1014.0
20260905034554 25 252 0.0 0.0 0.00 0.00 0.00 92 1013.9
20260905033104 25 252 0.0 0.0 0.00 0.00 0.00 91 1013.9
20260905031552 25 252 0.0 0.0 0.00 0.00 0.00 90 1013.9
20260905024603 26 252 0.0 0.0 0.00 0.00 0.00 88 1013.7
20260905023053 26 252 0.0 0.0 0.00 0.00 0.00 86 1013.9
20260905021550 27 252 0.0 0.0 0.00 0.00 0.00 85 1014.0
20260905020049 27 252 0.0 0.0 0.00 0.00 0.00 84 1013.9
20260905014550 27 252 0.0 0.0 0.00 0.00 0.00 82 1013.8
20260905013111 28 252 0.0 0.0 0.00 0.00 0.00 80 1013.9
20260905011548 28 252 0.0 0.0 0.00 0.00 0.00 78 1013.7
20260905010054 29 252 0.0 0.0 0.00 0.00 0.00 77 1013.6
20260905004547 30 252 0.0 0.0 0.00 0.00 0.00 73 1013.5
20260905003046 31 252 0.0 0.0 0.00 0.00 0.00 71 1013.6
20260905001546 31 252 0.0 0.0 0.00 0.00 0.00 68 1013.4
20260905000046 32 252 0.0 0.0 0.00 0.00 0.00 65 1013.3
20260904234545 33 252 0.0 1.6 0.00 0.00 0.00 64 1013.1
20260904233045 34 259 0.0 0.0 0.00 0.00 0.00 62 1013.1
20260904231544 35 259 0.0 1.6 0.00 0.00 0.00 60 1012.9
20260904230059 35 266 0.0 8.0 0.00 0.00 0.00 57 1012.8
20260904224543 36 295 0.0 3.2 0.00 0.00 0.00 54 1012.8
20260904223046 36 290 0.0 3.2 0.00 0.00 0.00 50 1012.6
20260904221534 36 292 0.0 3.2 0.00 0.00 0.00 51 1012.7
20260904220040 36 296 0.0 3.2 0.00 0.00 0.00 53 1012.7
20260904214533 36 303 0.0 3.2 0.00 0.00 0.00 52 1012.8
20260904213034 37 283 1.6 6.4 0.00 0.00 0.00 49 1012.9
20260904211530 37 286 0.0 3.2 0.00 0.00 0.00 47 1012.8
20260904210027 37 316 0.0 4.8 0.00 0.00 0.00 45 1012.9
20260904204525 37 257 0.0 3.2 0.00 0.00 0.00 46 1013.1
20260904203029 37 8 0.0 9.7 0.00 0.00 0.00 46 1013.3
20260904201535 37 243 0.0 3.2 0.00 0.00 0.00 45 1013.5
20260904200037 37 30 3.2 9.7 0.00 0.00 0.00 48 1014.0
20260904194518 36 241 4.8 12.9 0.00 0.00 0.00 48 1014.4
20260904193015 35 302 1.6 8.0 0.00 0.00 0.00 52 1014.5
20260904191517 36 281 0.0 9.7 0.00 0.00 0.00 50 1014.7
20260904190012 37 245 0.0 4.8 0.00 0.00 0.00 52 1014.7
20260904184510 36 269 3.2 6.4 0.00 0.00 0.00 51 1014.9
20260904183008 35 324 0.0 4.8 0.00 0.00 0.00 54 1015.1
20260904181507 36 275 0.0 3.2 0.00 0.00 0.00 56 1015.2
20260904180005 36 184 3.2 8.0 0.00 0.00 0.00 55 1015.3
20260904174506 35 245 3.2 6.4 0.00 0.00 0.00 54 1015.5
20260904173002 35 234 0.0 6.4 0.00 0.00 0.00 55 1015.6
20260904171621 35 217 1.6 3.2 0.00 0.00 0.00 57 1015.8
20260904170058 35 317 1.6 4.8 0.00 0.00 0.00 56 1016.1
20260904164558 35 217 0.0 4.8 0.00 0.00 0.00 57 1016.2
20260904163058 35 226 0.0 4.8 0.00 0.00 0.00 59 1016.4
20260904161600 35 231 1.6 8.0 0.00 0.00 0.00 57 1016.4
20260904160058 35 214 0.0 3.2 0.00 0.00 0.00 59 1016.5
20260904154551 35 242 0.0 1.6 0.00 0.00 0.00 62 1016.6
20260904153106 34 250 0.0 3.2 0.00 0.00 0.00 64 1016.7
20260904151543 33 230 0.0 1.6 0.00 0.00 0.00 65 1016.6
20260904150038 33 227 0.0 3.2 0.00 0.00 0.00 66 1016.5
20260904144534 32 233 0.0 3.2 0.00 0.00 0.00 69 1016.4
20260904143035 31 224 0.0 1.6 0.00 0.00 0.00 77 1016.3
20260904141526 28 226 0.0 3.2 0.00 0.00 0.00 81 1016.3
20260904140021 27 222 0.0 0.0 0.00 0.00 0.00 89 1016.2
20260904134522 26 222 0.0 0.0 0.00 0.00 0.00 94 1016.2
20260904133016 25 222 0.0 0.0 0.00 0.00 0.00 96 1016.4
20260904131512 24 222 0.0 0.0 0.00 0.00 0.00 98 1016.2